Location: All Nations United Methodist Church
(33.0215°N, 96.7483°W)
Time: 14:12:32
(UTC+00:00)

Cosmos 2034 Rocket - Pass Details

Date: 24 January 2021
Orbit: 957 x 1001 km, 82.9° (Epoch: 06 March)

Event Time Altitude Azimuth Distance (km) Brightness Sun altitude
Rises 12:09:06 0° 205° (SSW) 3,707 6.9 -16.4°
Reaches altitude 10° 12:11:47 10° 212° (SSW) 2,763 6.2 -15.8°
Maximum altitude 12:17:42 40° 281° (W) 1,430 4.4 -14.6°
Drops below altitude 10° 12:23:39 10° 350° (N) 2,772 6.1 -13.4°
Sets 12:26:21 0° 357° (N) 3,720 6.9 -12.8°
